| time (UTC) | temp F | wind direction | speed MPH | gust MPH | rain 1hr in | rain 24hr in | rain mn in | humidity % | barometer mb |
| 20260831081508 | 65 | 256 | 0.0 | 0.0 | 0.00 | 0.02 | 0.01 | 92 | 1018.5 |
| 20260831080007 | 65 | 256 | 0.0 | 1.0 | 0.00 | 0.02 | 0.01 | 92 | 1018.4 |
| 20260831074505 | 65 | 256 | 0.0 | 1.0 | 0.00 | 0.02 | 0.01 | 92 | 1018.4 |
| 20260831073003 | 65 | 256 | 0.0 | 0.0 | 0.00 | 0.02 | 0.01 | 91 | 1018.3 |
| 20260831071502 | 66 | 256 | 0.0 | 1.0 | 0.00 | 0.02 | 0.01 | 91 | 1018.1 |
| 20260831070106 | 66 | 256 | 0.0 | 0.0 | 0.00 | 0.02 | 0.01 | 91 | 1018.1 |
| 20260831064555 | 67 | 256 | 0.0 | 1.0 | 0.00 | 0.02 | 0.01 | 91 | 1017.8 |
| 20260831063053 | 67 | 305 | 0.0 | 1.0 | 0.00 | 0.02 | 0.01 | 91 | 1017.7 |
| 20260831061549 | 67 | 305 | 0.0 | 0.0 | 0.00 | 0.02 | 0.01 | 91 | 1017.9 |
| 20260831060051 | 67 | 305 | 0.0 | 1.0 | 0.00 | 0.02 | 0.01 | 90 | 1017.7 |
| 20260831054546 | 68 | 305 | 0.0 | 1.0 | 0.00 | 0.02 | 0.01 | 90 | 1017.6 |
| 20260831053058 | 68 | 305 | 0.0 | 3.0 | 0.00 | 0.02 | 0.01 | 90 | 1017.7 |
| 20260831051542 | 68 | 335 | 0.0 | 3.0 | 0.00 | 0.02 | 0.01 | 91 | 1017.5 |
| 20260831050042 | 69 | 310 | 0.0 | 1.0 | 0.01 | 0.02 | 0.01 | 91 | 1017.6 |
| 20260831044532 | 69 | 56 | 0.0 | 2.0 | 0.02 | 0.02 | 0.01 | 91 | 1017.7 |
| 20260831043030 | 69 | 307 | 0.0 | 1.0 | 0.02 | 0.02 | 0.01 | 90 | 1017.7 |
| 20260831041528 | 70 | 227 | 0.0 | 2.0 | 0.02 | 0.02 | 0.01 | 88 | 1017.7 |
| 20260831040025 | 71 | 107 | 0.0 | 3.0 | 0.01 | 0.01 | 0.00 | 84 | 1017.8 |
| 20260831034523 | 71 | 47 | 0.0 | 2.0 | 0.00 | 0.00 | 0.00 | 88 | 1017.9 |
| 20260831033042 | 72 | 322 | 1.0 | 7.0 | 0.00 | 0.00 | 0.00 | 85 | 1017.7 |
| 20260831031522 | 72 | 275 | 4.0 | 9.0 | 0.00 | 0.00 | 0.00 | 84 | 1017.5 |
| 20260831030022 | 73 | 275 | 4.0 | 11.0 | 0.00 | 0.00 | 0.00 | 88 | 1017.5 |
| 20260831024520 | 73 | 336 | 2.0 | 7.0 | 0.00 | 0.00 | 0.00 | 89 | 1017.5 |
| 20260831023020 | 73 | 306 | 2.0 | 7.0 | 0.00 | 0.00 | 0.00 | 90 | 1017.6 |
| 20260831021519 | 73 | 175 | 1.0 | 10.0 | 0.00 | 0.00 | 0.00 | 89 | 1017.6 |
| 20260831020018 | 73 | 327 | 2.0 | 6.0 | 0.00 | 0.00 | 0.00 | 89 | 1017.5 |
| 20260831014519 | 73 | 293 | 0.0 | 6.0 | 0.00 | 0.00 | 0.00 | 88 | 1017.5 |
| 20260831013018 | 73 | 293 | 0.0 | 4.0 | 0.00 | 0.00 | 0.00 | 87 | 1017.6 |
| 20260831011519 | 73 | 302 | 0.0 | 3.0 | 0.00 | 0.00 | 0.00 | 86 | 1017.8 |
| 20260831010016 | 73 | 293 | 1.0 | 5.0 | 0.00 | 0.00 | 0.00 | 85 | 1017.9 |
| 20260831004519 | 73 | 241 | 0.0 | 5.0 | 0.00 | 0.00 | 0.00 | 84 | 1017.8 |
| 20260831003020 | 73 | 291 | 2.0 | 6.0 | 0.00 | 0.00 | 0.00 | 83 | 1017.8 |
| 20260831001518 | 73 | 244 | 0.0 | 4.0 | 0.00 | 0.00 | 0.00 | 82 | 1017.7 |
| 20260831000013 | 73 | 310 | 3.0 | 6.0 | 0.00 | 0.00 | 0.00 | 82 | 1017.7 |
| 20260830234531 | 73 | 295 | 1.0 | 7.0 | 0.00 | 0.00 | 0.00 | 82 | 1017.6 |
| 20260830233012 | 73 | 14 | 0.0 | 4.0 | 0.00 | 0.00 | 0.00 | 82 | 1017.3 |
| 20260830231513 | 74 | 285 | 0.0 | 5.0 | 0.00 | 0.00 | 0.00 | 82 | 1017.4 |
| 20260830230008 | 74 | 271 | 0.0 | 6.0 | 0.00 | 0.00 | 0.00 | 81 | 1017.3 |
| 20260830224508 | 74 | 170 | 0.0 | 4.0 | 0.00 | 0.00 | 0.00 | 81 | 1017.4 |
| 20260830223008 | 74 | 292 | 1.0 | 4.0 | 0.00 | 0.00 | 0.00 | 82 | 1017.6 |
| 20260830221511 | 75 | 134 | 0.0 | 5.0 | 0.00 | 0.00 | 0.00 | 80 | 1017.5 |
| 20260830220009 | 75 | 357 | 1.0 | 4.0 | 0.00 | 0.00 | 0.00 | 78 | 1017.6 |
| 20260830214504 | 75 | 288 | 0.0 | 4.0 | 0.00 | 0.00 | 0.00 | 74 | 1017.6 |
| 20260830213004 | 75 | 172 | 0.0 | 5.0 | 0.00 | 0.00 | 0.00 | 73 | 1017.7 |
| 20260830211502 | 76 | 251 | 2.0 | 6.0 | 0.00 | 0.00 | 0.00 | 69 | 1017.9 |
| 20260830210003 | 76 | 167 | 1.0 | 3.0 | 0.00 | 0.00 | 0.00 | 69 | 1017.9 |
| 20260830204501 | 77 | 177 | 1.0 | 3.0 | 0.00 | 0.00 | 0.00 | 67 | 1017.9 |
| 20260830203101 | 78 | 333 | 0.0 | 6.0 | 0.00 | 0.00 | 0.00 | 63 | 1018.0 |
| 20260830201606 | 79 | 302 | 3.0 | 7.0 | 0.00 | 0.00 | 0.00 | 59 | 1017.9 |
| 20260830200058 | 80 | 234 | 1.0 | 8.0 | 0.00 | 0.00 | 0.00 | 58 | 1018.1 |
| 20260830194602 | 80 | 282 | 2.0 | 6.0 | 0.00 | 0.00 | 0.00 | 55 | 1018.2 |
| 20260830193054 | 79 | 67 | 2.0 | 10.0 | 0.00 | 0.00 | 0.00 | 58 | 1018.6 |
| 20260830191558 | 79 | 291 | 3.0 | 7.0 | 0.00 | 0.00 | 0.00 | 59 | 1018.7 |
| 20260830184552 | 79 | 278 | 2.0 | 7.0 | 0.00 | 0.00 | 0.00 | 60 | 1018.9 |
| 20260830183047 | 79 | 263 | 0.0 | 4.0 | 0.00 | 0.00 | 0.00 | 58 | 1019.2 |
| 20260830181546 | 79 | 269 | 2.0 | 7.0 | 0.00 | 0.00 | 0.00 | 56 | 1019.2 |
| 20260830180043 | 80 | 300 | 2.0 | 8.0 | 0.00 | 0.00 | 0.00 | 55 | 1019.4 |
| 20260830174541 | 80 | 297 | 4.0 | 9.0 | 0.00 | 0.00 | 0.00 | 55 | 1019.5 |
| 20260830173045 | 79 | 262 | 2.0 | 9.0 | 0.00 | 0.00 | 0.00 | 57 | 1019.5 |
| 20260830171543 | 80 | 175 | 1.0 | 9.0 | 0.00 | 0.00 | 0.00 | 56 | 1019.8 |
| 20260830170042 | 78 | 299 | 3.0 | 9.0 | 0.00 | 0.00 | 0.00 | 56 | 1020.0 |
| 20260830164533 | 78 | 256 | 3.0 | 8.0 | 0.00 | 0.00 | 0.00 | 60 | 1020.0 |
| 20260830163034 | 79 | 304 | 2.0 | 10.0 | 0.00 | 0.00 | 0.00 | 64 | 1020.0 |
| 20260830161530 | 79 | 225 | 1.0 | 5.0 | 0.00 | 0.00 | 0.00 | 63 | 1019.8 |
| 20260830160029 | 77 | 279 | 5.0 | 10.0 | 0.00 | 0.00 | 0.00 | 64 | 1020.1 |
| 20260830154527 | 77 | 344 | 2.0 | 11.0 | 0.00 | 0.00 | 0.00 | 69 | 1020.5 |
| 20260830153029 | 78 | 30 | 4.0 | 8.0 | 0.00 | 0.00 | 0.00 | 67 | 1020.7 |
| 20260830151523 | 77 | 286 | 2.0 | 6.0 | 0.00 | 0.00 | 0.00 | 69 | 1020.7 |
| 20260830150020 | 77 | 320 | 1.0 | 6.0 | 0.00 | 0.00 | 0.00 | 72 | 1020.8 |
| 20260830144517 | 76 | 210 | 2.0 | 5.0 | 0.00 | 0.00 | 0.00 | 73 | 1021.1 |
| 20260830143012 | 76 | 182 | 1.0 | 5.0 | 0.00 | 0.00 | 0.00 | 74 | 1021.1 |
| 20260830141509 | 75 | 267 | 1.0 | 7.0 | 0.00 | 0.00 | 0.00 | 71 | 1021.3 |
| 20260830140108 | 74 | 286 | 1.0 | 5.0 | 0.00 | 0.00 | 0.00 | 74 | 1021.3 |
| 20260830134502 | 74 | 285 | 2.0 | 10.0 | 0.00 | 0.00 | 0.00 | 73 | 1021.3 |
| 20260830133116 | 73 | 286 | 1.0 | 6.0 | 0.00 | 0.00 | 0.00 | 77 | 1021.5 |
| 20260830131601 | 71 | 291 | 2.0 | 7.0 | 0.00 | 0.00 | 0.00 | 79 | 1021.6 |
| 20260830130058 | 70 | 263 | 1.0 | 4.0 | 0.00 | 0.00 | 0.00 | 80 | 1021.6 |
| 20260830124549 | 68 | 257 | 1.0 | 3.0 | 0.00 | 0.00 | 0.00 | 80 | 1021.7 |
| 20260830123045 | 67 | 262 | 0.0 | 1.0 | 0.00 | 0.00 | 0.00 | 83 | 1021.9 |
| 20260830121542 | 66 | 309 | 0.0 | 1.0 | 0.00 | 0.00 | 0.00 | 84 | 1021.8 |
| 20260830120039 | 65 | 239 | 0.0 | 2.0 | 0.00 | 0.00 | 0.00 | 85 | 1021.7 |
| 20260830114533 | 64 | 306 | 0.0 | 1.0 | 0.00 | 0.00 | 0.00 | 87 | 1021.8 |
| 20260830113031 | 63 | 284 | 0.0 | 1.0 | 0.00 | 0.00 | 0.00 | 89 | 1021.7 |
| 20260830111529 | 62 | 281 | 0.0 | 0.0 | 0.00 | 0.00 | 0.00 | 92 | 1021.7 |
| 20260830110026 | 61 | 281 | 0.0 | 0.0 | 0.00 | 0.00 | 0.00 | 92 | 1021.7 |
| 20260830104525 | 61 | 281 | 0.0 | 0.0 | 0.00 | 0.00 | 0.00 | 92 | 1021.7 |
| 20260830103031 | 60 | 281 | 0.0 | 0.0 | 0.00 | 0.00 | 0.00 | 91 | 1021.6 |
| 20260830101523 | 61 | 281 | 0.0 | 0.0 | 0.00 | 0.00 | 0.00 | 92 | 1021.9 |
| 20260830100022 | 60 | 281 | 0.0 | 0.0 | 0.00 | 0.00 | 0.00 | 90 | 1021.9 |
| 20260830094520 | 60 | 281 | 0.0 | 1.0 | 0.00 | 0.00 | 0.00 | 89 | 1021.8 |
| 20260830093031 | 60 | 281 | 0.0 | 1.0 | 0.00 | 0.00 | 0.00 | 90 | 1021.8 |
| 20260830091519 | 59 | 281 | 0.0 | 0.0 | 0.00 | 0.00 | 0.00 | 90 | 1021.8 |
| 20260830090018 | 59 | 281 | 0.0 | 0.0 | 0.00 | 0.00 | 0.00 | 89 | 1021.8 |
| 20260830084516 | 59 | 281 | 0.0 | 0.0 | 0.00 | 0.00 | 0.00 | 89 | 1021.8 |
| 20260830083013 | 59 | 281 | 0.0 | 0.0 | 0.00 | 0.00 | 0.00 | 89 | 1021.9 |